| time (UTC) | temp F | wind direction | speed MPH | gust MPH | rain 1hr in | rain 24hr in | rain mn in | humidity % | barometer mb |
| 20260904223531 | 62 | 259 | 14.0 | 20.0 | 0.00 | 0.27 | 0.00 | 89 | 1009.9 |
| 20260904221531 | 62 | 243 | 14.0 | 21.0 | 0.00 | 0.27 | 0.00 | 90 | 1009.9 |
| 20260904220530 | 62 | 251 | 15.0 | 19.0 | 0.00 | 0.27 | 0.00 | 90 | 1009.3 |
| 20260904215530 | 62 | 240 | 14.0 | 20.0 | 0.00 | 0.27 | 0.00 | 90 | 1009.3 |
| 20260904214532 | 62 | 259 | 12.0 | 31.0 | 0.00 | 0.27 | 0.00 | 90 | 1009.3 |
| 20260904212528 | 62 | 246 | 14.0 | 28.0 | 0.00 | 0.27 | 0.00 | 91 | 1009.3 |
| 20260904211532 | 62 | 246 | 14.0 | 31.0 | 0.00 | 0.27 | 0.00 | 91 | 1009.3 |
| 20260904210531 | 62 | 256 | 14.0 | 31.0 | 0.00 | 0.27 | 0.00 | 91 | 1008.6 |
| 20260904205530 | 62 | 255 | 12.0 | 25.0 | 0.00 | 0.27 | 0.00 | 91 | 1008.6 |
| 20260904204532 | 62 | 265 | 10.0 | 31.0 | 0.01 | 0.27 | 0.00 | 91 | 1008.6 |
| 20260904203529 | 62 | 261 | 12.0 | 31.0 | 0.01 | 0.27 | 0.00 | 91 | 1008.6 |
| 20260904202528 | 62 | 265 | 12.0 | 29.0 | 0.02 | 0.27 | 0.00 | 91 | 1008.6 |
| 20260904201530 | 62 | 268 | 13.0 | 27.0 | 0.02 | 0.27 | 0.00 | 91 | 1008.6 |
| 20260904200531 | 62 | 261 | 12.0 | 25.0 | 0.03 | 0.27 | 0.00 | 91 | 1008.2 |
| 20260904195530 | 62 | 271 | 15.0 | 30.0 | 0.03 | 0.27 | 0.00 | 91 | 1008.2 |
| 20260904194531 | 62 | 270 | 16.0 | 29.0 | 0.03 | 0.26 | 0.00 | 91 | 1008.2 |
| 20260904193530 | 62 | 250 | 16.0 | 32.0 | 0.03 | 0.26 | 0.00 | 91 | 1008.2 |
| 20260904192529 | 62 | 259 | 13.0 | 30.0 | 0.02 | 0.25 | 0.00 | 91 | 1008.2 |
| 20260904191532 | 62 | 247 | 18.0 | 27.0 | 0.02 | 0.25 | 0.00 | 91 | 1008.2 |
| 20260904190531 | 62 | 242 | 17.0 | 30.0 | 0.02 | 0.24 | 0.00 | 90 | 1007.1 |
| 20260904185530 | 62 | 245 | 19.0 | 25.0 | 0.02 | 0.24 | 0.00 | 91 | 1007.1 |
| 20260904184531 | 62 | 245 | 18.0 | 27.0 | 0.02 | 0.24 | 0.00 | 90 | 1007.1 |
| 20260904183529 | 62 | 231 | 19.0 | 28.0 | 0.01 | 0.23 | 0.00 | 90 | 1007.1 |
| 20260904182528 | 62 | 230 | 16.0 | 28.0 | 0.01 | 0.23 | 0.00 | 90 | 1007.1 |
| 20260904181532 | 62 | 238 | 19.0 | 31.0 | 0.00 | 0.22 | 0.00 | 90 | 1007.1 |
| 20260904180532 | 63 | 227 | 20.0 | 28.0 | 0.00 | 0.22 | 0.00 | 90 | 1007.3 |
| 20260904175530 | 63 | 221 | 20.0 | 28.0 | 0.04 | 0.22 | 0.00 | 90 | 1007.3 |
| 20260904174531 | 63 | 250 | 19.0 | 31.0 | 0.07 | 0.22 | 0.00 | 90 | 1007.3 |
| 20260904172529 | 64 | 240 | 15.0 | 25.0 | 0.14 | 0.22 | 0.00 | 89 | 1007.3 |
| 20260904171532 | 65 | 254 | 20.0 | 30.0 | 0.18 | 0.22 | 0.00 | 89 | 1007.3 |
| 20260904165529 | 65 | 253 | 18.0 | 30.0 | 0.18 | 0.19 | 0.00 | 89 | 1006.8 |
| 20260904163529 | 66 | 260 | 22.0 | 31.0 | 0.11 | 0.12 | 0.00 | 91 | 1006.8 |
| 20260904162530 | 66 | 268 | 18.0 | 30.0 | 0.08 | 0.08 | 0.00 | 91 | 1006.8 |
| 20260904154532 | 67 | 285 | 22.0 | 37.0 | 0.01 | 0.01 | 0.00 | 90 | 1005.6 |
| 20260904153530 | 68 | 270 | 24.0 | 34.0 | 0.00 | 0.01 | 0.00 | 90 | 1005.6 |
| 20260904152529 | 68 | 283 | 21.0 | 36.0 | 0.00 | 0.01 | 0.00 | 89 | 1005.6 |
| 20260904150530 | 68 | 304 | 28.0 | 50.0 | 0.00 | 0.00 | 0.00 | 89 | 1004.7 |
| 20260904144532 | 70 | 243 | 30.0 | 44.0 | 0.00 | 0.00 | 0.00 | 87 | 1004.7 |
| 20260904143530 | 76 | 252 | 28.0 | 50.0 | 0.00 | 0.00 | 0.00 | 65 | 1004.7 |
| 20260904142530 | 77 | 258 | 29.0 | 46.0 | 0.00 | 0.00 | 0.00 | 64 | 1004.7 |
| 20260904141532 | 77 | 253 | 23.0 | 35.0 | 0.00 | 0.00 | 0.00 | 64 | 1004.7 |
| 20260904140530 | 77 | 254 | 23.0 | 42.0 | 0.00 | 0.00 | 0.00 | 65 | 1005.5 |
| 20260904135529 | 78 | 260 | 25.0 | 36.0 | 0.00 | 0.00 | 0.00 | 65 | 1005.5 |
| 20260904134533 | 77 | 233 | 25.0 | 41.0 | 0.00 | 0.00 | 0.00 | 66 | 1005.5 |
| 20260904133530 | 77 | 235 | 23.0 | 44.0 | 0.00 | 0.00 | 0.00 | 66 | 1005.5 |
| 20260904132529 | 76 | 230 | 25.0 | 37.0 | 0.00 | 0.00 | 0.00 | 68 | 1005.5 |
| 20260904125529 | 74 | 236 | 22.0 | 38.0 | 0.00 | 0.00 | 0.00 | 70 | 1006.5 |
| 20260904124531 | 74 | 248 | 26.0 | 38.0 | 0.00 | 0.00 | 0.00 | 70 | 1006.5 |
| 20260904123529 | 74 | 235 | 24.0 | 39.0 | 0.00 | 0.00 | 0.00 | 71 | 1006.5 |
| 20260904122529 | 74 | 250 | 24.0 | 37.0 | 0.00 | 0.00 | 0.00 | 70 | 1006.5 |
| 20260904121532 | 74 | 248 | 22.0 | 38.0 | 0.00 | 0.00 | 0.00 | 71 | 1006.5 |
| 20260904120529 | 73 | 243 | 25.0 | 41.0 | 0.00 | 0.00 | 0.00 | 71 | 1007.7 |
| 20260904115529 | 73 | 241 | 23.0 | 37.0 | 0.00 | 0.00 | 0.00 | 71 | 1007.7 |
| 20260904114532 | 73 | 230 | 25.0 | 32.0 | 0.00 | 0.00 | 0.00 | 71 | 1007.7 |
| 20260904113530 | 73 | 241 | 22.0 | 33.0 | 0.00 | 0.00 | 0.00 | 71 | |
| 20260904112528 | 73 | 236 | 24.0 | 35.0 | 0.00 | 0.00 | 0.00 | 72 | |
| 20260904111532 | 73 | 228 | 21.0 | 36.0 | 0.00 | 0.00 | 0.00 | 72 | |
| 20260904103529 | 73 | 238 | 20.0 | 31.0 | 0.00 | 0.00 | 0.00 | 73 | 1008.7 |
| 20260904102530 | 73 | 221 | 20.0 | 29.0 | 0.00 | 0.00 | 0.00 | 74 | 1008.7 |
| 20260904101532 | 72 | 247 | 15.0 | 28.0 | 0.00 | 0.00 | 0.00 | 75 | 1008.7 |
| 20260904100530 | 72 | 248 | 16.0 | 32.0 | 0.00 | 0.00 | 0.00 | 75 | 1009.6 |
| 20260904095529 | 71 | 233 | 17.0 | 26.0 | 0.00 | 0.00 | 0.00 | 75 | 1009.6 |
| 20260904093530 | 72 | 240 | 22.0 | 28.0 | 0.00 | 0.00 | 0.00 | 76 | 1009.6 |
| 20260904092530 | 71 | 224 | 20.0 | 31.0 | 0.00 | 0.00 | 0.00 | 76 | 1009.6 |
| 20260904091530 | 71 | 226 | 20.0 | 27.0 | 0.00 | 0.00 | 0.00 | 76 | 1009.6 |
| 20260904090531 | 71 | 226 | 19.0 | 29.0 | 0.00 | 0.00 | 0.00 | 76 | 1010.2 |
| 20260904085528 | 71 | 238 | 17.0 | 28.0 | 0.00 | 0.00 | 0.00 | 77 | 1010.2 |
| 20260904084532 | 70 | 224 | 18.0 | 31.0 | 0.00 | 0.00 | 0.00 | 79 | 1010.2 |
| 20260904083529 | 70 | 226 | 18.0 | 27.0 | 0.00 | 0.00 | 0.00 | 79 | 1010.2 |
| 20260904082530 | 70 | 217 | 17.0 | 30.0 | 0.00 | 0.00 | 0.00 | 79 | 1010.2 |
| 20260904081533 | 69 | 212 | 16.0 | 26.0 | 0.00 | 0.00 | 0.00 | 80 | 1010.2 |
| 20260904080529 | 69 | 224 | 17.0 | 18.0 | 0.00 | 0.00 | 0.00 | 81 | |
| 20260904075529 | 68 | 212 | 16.0 | 21.0 | 0.00 | 0.00 | 0.00 | 81 | |
| 20260904074531 | 68 | 228 | 17.0 | 21.0 | 0.00 | 0.00 | 0.00 | 81 | |
| 20260904073530 | 67 | 227 | 19.0 | 23.0 | 0.00 | 0.00 | 0.00 | 82 | |
| 20260904072529 | 67 | 222 | 18.0 | 22.0 | 0.00 | 0.00 | 0.00 | 82 | |
| 20260904071532 | 67 | 215 | 14.0 | 17.0 | 0.00 | 0.00 | 0.00 | 82 | |
| 20260904070529 | 67 | 228 | 13.0 | 18.0 | 0.00 | 0.00 | 0.00 | 82 | 1011.8 |
| 20260904065528 | 66 | 212 | 14.0 | 18.0 | 0.00 | 0.00 | 0.00 | 82 | 1011.8 |
| 20260904064531 | 66 | 213 | 12.0 | 16.0 | 0.00 | 0.00 | 0.00 | 82 | 1011.8 |
| 20260904063529 | 66 | 224 | 12.0 | 16.0 | 0.00 | 0.00 | 0.00 | 83 | 1011.8 |
| 20260904062529 | 65 | 213 | 11.0 | 17.0 | 0.00 | 0.00 | 0.00 | 83 | 1011.8 |
| 20260904061531 | 65 | 209 | 11.0 | 17.0 | 0.00 | 0.00 | 0.00 | 83 | 1011.8 |
| 20260904060529 | 65 | 209 | 11.0 | 18.0 | 0.00 | 0.00 | 0.00 | 83 | 1012.3 |
| 20260904055528 | 65 | 213 | 10.0 | 20.0 | 0.00 | 0.00 | 0.00 | 83 | 1012.3 |
| 20260904054531 | 65 | 240 | 10.0 | 18.0 | 0.00 | 0.00 | 0.00 | 83 | 1012.3 |
| 20260904053529 | 65 | 238 | 13.0 | 19.0 | 0.00 | 0.00 | 0.00 | 84 | 1012.3 |
| 20260904052529 | 65 | 231 | 13.0 | 18.0 | 0.00 | 0.00 | 0.00 | 84 | 1012.3 |
| 20260904051531 | 65 | 212 | 15.0 | 20.0 | 0.00 | 0.00 | 0.00 | 84 | 1012.3 |
| 20260904050530 | 65 | 225 | 12.0 | 13.0 | 0.00 | 0.00 | 0.00 | 83 | 1013.1 |
| 20260904045529 | 64 | 214 | 12.0 | 15.0 | 0.00 | 0.00 | 0.00 | 83 | 1013.1 |
| 20260904043530 | 64 | 218 | 11.0 | 13.0 | 0.00 | 0.00 | 0.00 | 82 | 1013.1 |
| 20260904042529 | 65 | 230 | 9.0 | 14.0 | 0.00 | 0.00 | 0.00 | 81 | 1013.1 |
| 20260904041531 | 65 | 221 | 11.0 | 14.0 | 0.00 | 0.00 | 0.00 | 81 | 1013.1 |
| 20260904035528 | 65 | 237 | 11.0 | 13.0 | 0.00 | 0.00 | 0.00 | 80 | 1013.5 |
| 20260904034530 | 65 | 250 | 9.0 | 13.0 | 0.00 | 0.00 | 0.00 | 80 | 1013.5 |
| 20260904033529 | 65 | 239 | 10.0 | 14.0 | 0.00 | 0.00 | 0.00 | 80 | 1013.5 |
| 20260904032529 | 65 | 242 | 8.0 | 14.0 | 0.00 | 0.00 | 0.00 | 80 | 1013.5 |
| 20260904030530 | 65 | 241 | 10.0 | 16.0 | 0.00 | 0.00 | 0.00 | 80 | 1013.9 |
| 20260904025528 | 65 | 243 | 10.0 | 14.0 | 0.00 | 0.00 | 0.00 | 80 | 1013.9 |
| 20260904024530 | 65 | 246 | 8.0 | 15.0 | 0.00 | 0.00 | 0.00 | 81 | 1013.9 |
| 20260904023529 | 65 | 257 | 9.0 | 16.0 | 0.00 | 0.00 | 0.00 | 81 | 1013.9 |
| 20260904022528 | 65 | 253 | 10.0 | 17.0 | 0.00 | 0.00 | 0.00 | 81 | 1013.9 |
| 20260904021530 | 65 | 240 | 12.0 | 15.0 | 0.00 | 0.00 | 0.00 | 81 | 1013.9 |
| 20260904020529 | 65 | 243 | 11.0 | 15.0 | 0.00 | 0.00 | 0.00 | 82 | 1013.8 |
| 20260904015528 | 65 | 246 | 12.0 | 13.0 | 0.00 | 0.00 | 0.00 | 82 | 1013.8 |
| 20260904014532 | 65 | 235 | 10.0 | 15.0 | 0.00 | 0.00 | 0.00 | 82 | 1013.8 |
| 20260904013527 | 65 | 245 | 9.0 | 14.0 | 0.00 | 0.00 | 0.00 | 82 | 1013.8 |
| 20260904012528 | 65 | 249 | 10.0 | 14.0 | 0.00 | 0.00 | 0.00 | 82 | 1013.8 |
| 20260904011530 | 65 | 244 | 9.0 | 15.0 | 0.00 | 0.00 | 0.00 | 83 | 1013.8 |
| 20260904004531 | 65 | 249 | 11.0 | 14.0 | 0.00 | 0.00 | 0.00 | 83 | 1014.1 |
| 20260904003528 | 65 | 236 | 11.0 | 14.0 | 0.00 | 0.00 | 0.00 | 83 | 1014.1 |
| 20260904002528 | 65 | 244 | 12.0 | 13.0 | 0.00 | 0.00 | 0.00 | 83 | 1014.1 |
| 20260904001530 | 65 | 233 | 9.0 | 13.0 | 0.00 | 0.00 | 0.00 | 84 | 1014.1 |
| 20260904000530 | 65 | 230 | 11.0 | 17.0 | 0.00 | 0.00 | 0.00 | 84 | 1014.7 |
| 20260903235530 | 65 | 234 | 9.0 | 15.0 | 0.00 | 0.00 | 0.00 | 84 | 1014.7 |
| 20260903234531 | 65 | 251 | 8.0 | 15.0 | 0.00 | 0.00 | 0.00 | 84 | 1014.7 |
| 20260903230530 | 65 | 242 | 10.0 | 20.0 | 0.00 | 0.00 | 0.00 | 83 | 1014.5 |
| 20260903225531 | 65 | 237 | 9.0 | 17.0 | 0.00 | 0.00 | 0.00 | 83 | 1014.5 |
| 20260903224530 | 65 | 231 | 10.0 | 17.0 | 0.00 | 0.00 | 0.00 | 83 | 1014.5 |